Lexington Weather

Lexington, Massachusetts, USA

43°F
9/19/2020 7:11am 
  • Lexington Conditions: Clear
  • Temperature: 43.0°F / 6.1°CColder 0.5°F than last hour.
  • Dew Point: 35.6°FIncreased 0.5°Fsince last hour.
  • Relative Humidity: 75%Increased 3.0% since last hour.
  • Wind: Wind from NNE NNE 1 mph, 10-min avg: 1 mph, gust: 2 mph
  • Barometer: 30.22 inRising 0.03  inHg/hr Rising Slowly
  • Visibility: 10 miles
  • Rain Today: 0.00 in
  •   
Southeast Middlesex County - Special Weather Statement
 - SEE ALL NEARBY ALERTS -

Regional Weather Roundup
for Boston / Norton, MA

        
000
ASUS41 KBOX 161004
RWRBOX

REGIONAL WEATHER ROUNDUP
NATIONAL WEATHER SERVICE BOSTON/NORTON MA
600 AM EDT WED SEP 16 2020

NOTE:  "FAIR" INDICATES FEW OR NO CLOUDS BELOW 12,000 FEET WITH NO 
SIGNIFICANT WEATHER AND/OR OBSTRUCTIONS TO VISIBILITY.

MAZALL-161100-
EASTERN MASSACHUSETTS
  
CITY           SKY/WX    TMP DP  RH WIND       PRES   REMARKS
BOSTON         PTCLDY    52  48  86 SW9       30.23S                  
BEVERLY        CLEAR     51  47  86 S7        30.21S                  
LAWRENCE       CLEAR     49  46  90 S7        30.23S                  
BEDFORD        CLEAR     48  45  89 CALM      30.21S                  
BLUE HILL        N/A     51  47  86 SW16      30.22S                  
NORWOOD        CLEAR     41  38  89 CALM      30.23S FOG              
MARSHFIELD     CLEAR     46  46 100 CALM      30.24R                  
PLYMOUTH       CLEAR     46  44  93 CALM      30.25R                  
TAUNTON        CLEAR     41  39  93 CALM      30.25R                  
NEW BEDFORD    CLEAR     43  40  89 CALM      30.24S                  
$$

MAZALL-161100-
CAPE COD AND THE ISLANDS
  
CITY           SKY/WX    TMP DP  RH WIND       PRES   REMARKS
FALMOUTH       PTCLDY    45  43  93 CALM      30.26R                  
HYANNIS        PTCLDY    45  43  93 N3        30.25R                  
CHATHAM        PTCLDY    58  53  84 SW5       30.27S                  
PROVINCETOWN   CLEAR     56  52  86 SW8       30.26S                  
NANTUCKET      CLEAR     50  46  86 CALM      30.27S                  
MARTHAS VNYRD  PTCLDY    40  37  89 CALM      30.26S                  
$$
 
MAZALL-161100-
CENTRAL AND WESTERN MASSACHUSETTS
  
CITY           SKY/WX    TMP DP  RH WIND       PRES   REMARKS
WORCESTER      CLEAR     51  47  86 SW14      30.21S                  
FITCHBURG      CLEAR     44  41  89 CALM      30.22S                  
ORANGE         CLEAR     39  38  96 CALM      30.22S                  
SPRINGFIELD    NOT AVBL                                               
WESTFIELD      CLEAR     41  41 100 S5        30.22S                  
NORTH ADAMS    CLEAR     45  42  89 VRB5      30.20F                  
PITTSFIELD     FOG       39  38  96 CALM      30.20S VSB 1/2          
$$
 
RIZALL-161100-
RHODE ISLAND
  
CITY           SKY/WX    TMP DP  RH WIND       PRES   REMARKS
PROVIDENCE     CLEAR     47  46  97 SW3       30.25S                  
NEWPORT        PTCLDY    55  51  86 CALM      30.25R                  
BLOCK ISLAND   MOCLDY    60  50  69 SW8       30.26S                  
SMITHFIELD     CLEAR     49  49 100 SW5       30.24S                  
WESTERLY       CLEAR     44  41  89 CALM      30.25S                  
$$
 
CTZALL-161100-
CONNECTICUT
  
CITY           SKY/WX    TMP DP  RH WIND       PRES   REMARKS
BRADLEY INTL   MOCLDY    46  44  93 S3        30.23S                  
HARTFORD       CLEAR     49  47  93 S3        30.24S                  
BRIDGEPORT     CLEAR     55  49  80 CALM      30.24S                  
DANBURY        CLEAR     44  41  89 CALM      30.25S                  
GROTON         CLEAR     61  51  70 SW13      30.24S                  
NEW HAVEN      MOCLDY    52  51  97 CALM      30.24S                  
CHESTER        FAIR      50  48  93 CALM      30.24S                  
MERIDEN        CLEAR     44  42  93 CALM      30.25R                  
WILLIMANTIC    FOG       43  43 100 CALM      30.25S VSB 1/4          
OXFORD         CLEAR     48  48 100 CALM      30.25S                  
$$

MEZ002-015-021-024-NHZ003-005-008-011-012-014-VTZ005-008-161100-
NORTHERN NEW ENGLAND
  
CITY           SKY/WX    TMP DP  RH WIND       PRES   REMARKS
PORTLAND ME    PTCLDY    49  44  83 SW3       30.18S                  
BANGOR ME      MOCLDY    53  49  86 S10       30.14F                  
CONCORD NH     CLEAR     37  35  92 CALM      30.19F                  
MANCHESTER NH  CLEAR     50  43  77 SW3       30.19R                  
NASHUA NH      CLEAR     48  47  96 CALM      30.22R                  
PORTSMOUTH NH  CLEAR     51  44  76 SW9       30.18F                  
JAFFREY NH     CLEAR     47  44  90 SW5       30.20S                  
KEENE NH       CLEAR     37  37 100 CALM      30.22R                  
BURLINGTON VT  CLEAR     56  43  61 S16G30    30.08F                  
MT. WASHINGTON NOT AVBL                                               
$$

NYZ052-076-161100-
EASTERN NEW YORK
  
CITY           SKY/WX    TMP DP  RH WIND       PRES   REMARKS
ALBANY         MOCLDY    46  45  96 SE8       30.19S                  
NEW YORK CITY  MOCLDY    60  49  66 SW3       30.24S                  
$$
 
ANZALL-161100-
MARINE OBSERVATIONS
  
STATION/POSITION TIME  TEMP    WIND        PRES    VSBY  WAVE
                       AIR SEA DIR/SP/G                  HT/PER
                 (UTC) (F)     (DEG/KT/KT) (MB)    (MI)  (FT/S)
BOSTON BUOY      0950   59 63  190/ 14/ 16 1022.6F         2/10
BUZZARDS BAY     0900          230/ 12/ 13 1025.3S
NANTUCKET SOUND  0950      70  210/ 10/ 14   N/A           1/ 2
MASS BAY-STELLWA 0904   59     250/ 16/ 19 1021.3F  1 7/8  3/ 4
ISLE OF SHOALS   0900   56     230/ 15/ 16 1022.2F
S OF BLOCK IS    0926      70                N/A           4/11
$$

......................KEY.........................
  SKY/WX - SKY CONDITION/PRESENT WEATHER
  TMP    - TEMPERATURE IN FAHRENHEIT
  DWPT   - DEWPOINT IN FAHRENHEIT
  RH     - RELATIVE HUMIDITY IN PERCENT
  WIND   - DIRECTION AND SPEED IN MPH
  PRES   - MEAN SEA LEVEL PRESSURE IN INCHES OF HG
  WCI    - WIND CHILL INDEX
  VSB    - VISIBILITY IN MILES
  HX     - HEAT INDEX
  TC     - TEMPERATURE IN CELSIUS
  VRB    - VARIABLE WIND DIRECTION
  N/A    - NOT AVAILABLE
  
      

Other recent Regional Weather Roundups

Sat Sep 19, 7:04am

Sat Sep 19, 6:04am

Sat Sep 19, 5:04am

Sat Sep 19, 4:04am

Sat Sep 19, 3:04am

Sat Sep 19, 2:04am

Sat Sep 19, 1:04am

Sat Sep 19, 12:04am

Fri Sep 18, 11:05pm

Fri Sep 18, 10:04pm

Fri Sep 18, 9:04pm

Fri Sep 18, 8:04pm

Fri Sep 18, 7:04pm

Fri Sep 18, 6:04pm

Fri Sep 18, 5:05pm

Fri Sep 18, 4:04pm

Fri Sep 18, 3:05pm

Fri Sep 18, 2:04pm

Fri Sep 18, 1:04pm

Fri Sep 18, 12:04pm

Fri Sep 18, 11:05am

Fri Sep 18, 10:05am

Fri Sep 18, 9:04am

Fri Sep 18, 8:04am

Fri Sep 18, 7:04am

Fri Sep 18, 6:04am

Fri Sep 18, 5:04am

Fri Sep 18, 4:04am

Fri Sep 18, 3:04am

Fri Sep 18, 2:04am

Fri Sep 18, 1:04am

Fri Sep 18, 12:04am

Thu Sep 17, 11:05pm

Thu Sep 17, 10:04pm

Thu Sep 17, 9:04pm

Thu Sep 17, 8:05pm

Thu Sep 17, 7:04pm

Thu Sep 17, 6:04pm

Thu Sep 17, 5:04pm

Thu Sep 17, 4:04pm

Thu Sep 17, 3:05pm

Thu Sep 17, 2:04pm

Thu Sep 17, 1:04pm

Thu Sep 17, 12:04pm

Thu Sep 17, 11:04am

Thu Sep 17, 10:04am

Thu Sep 17, 9:04am

Thu Sep 17, 8:04am

Thu Sep 17, 7:04am

Thu Sep 17, 6:04am

Thu Sep 17, 5:04am

Thu Sep 17, 4:04am

Thu Sep 17, 3:04am

Thu Sep 17, 2:05am

Thu Sep 17, 1:05am

Thu Sep 17, 12:04am

Wed Sep 16, 11:04pm

Wed Sep 16, 10:04pm

Wed Sep 16, 9:04pm

Wed Sep 16, 8:05pm

Wed Sep 16, 7:04pm

Wed Sep 16, 6:04pm

Wed Sep 16, 5:04pm

Wed Sep 16, 4:04pm

Wed Sep 16, 3:04pm

Wed Sep 16, 2:04pm

Wed Sep 16, 1:04pm

Wed Sep 16, 12:04pm

Wed Sep 16, 11:04am

Wed Sep 16, 10:04am

Wed Sep 16, 9:04am

Wed Sep 16, 8:04am

Wed Sep 16, 7:04am

Wed Sep 16, 5:04am

Wed Sep 16, 4:04am

Wed Sep 16, 3:04am

Wed Sep 16, 2:04am

Wed Sep 16, 1:04am

Wed Sep 16, 12:05am

Tue Sep 15, 11:04pm

Tue Sep 15, 10:04pm

Tue Sep 15, 9:04pm

Tue Sep 15, 8:04pm

Tue Sep 15, 7:04pm

Tue Sep 15, 6:04pm

Tue Sep 15, 5:04pm

Tue Sep 15, 4:05pm

Tue Sep 15, 3:04pm

Tue Sep 15, 2:04pm

Tue Sep 15, 1:04pm

Tue Sep 15, 12:04pm

Tue Sep 15, 11:04am

Tue Sep 15, 10:04am

Tue Sep 15, 9:04am

Tue Sep 15, 8:04am

Tue Sep 15, 7:04am

Tue Sep 15, 6:04am

Tue Sep 15, 5:04am

Tue Sep 15, 4:04am

Tue Sep 15, 3:04am

Tue Sep 15, 2:04am

Tue Sep 15, 1:04am

Tue Sep 15, 12:05am

Mon Sep 14, 11:04pm

Mon Sep 14, 10:04pm

Mon Sep 14, 9:04pm

Mon Sep 14, 8:04pm

Mon Sep 14, 7:04pm

Mon Sep 14, 6:04pm

Mon Sep 14, 5:04pm

Mon Sep 14, 4:05pm

Mon Sep 14, 3:04pm

Mon Sep 14, 2:05pm

Mon Sep 14, 1:04pm

Mon Sep 14, 12:04pm

Mon Sep 14, 11:04am

Mon Sep 14, 10:05am

Mon Sep 14, 9:04am

Mon Sep 14, 8:04am

Mon Sep 14, 7:04am

Mon Sep 14, 6:04am

Mon Sep 14, 5:04am

Mon Sep 14, 4:04am

Mon Sep 14, 3:04am

Mon Sep 14, 2:04am

Mon Sep 14, 1:04am

Mon Sep 14, 12:04am

Sun Sep 13, 11:05pm

Sun Sep 13, 10:04pm

Sun Sep 13, 9:04pm

Sun Sep 13, 8:04pm

Sun Sep 13, 7:05pm

Sun Sep 13, 6:05pm

Sun Sep 13, 5:05pm

Sun Sep 13, 4:04pm

Sun Sep 13, 3:04pm

Sun Sep 13, 2:04pm

Sun Sep 13, 1:04pm

Sun Sep 13, 12:04pm

Sun Sep 13, 11:05am

Sun Sep 13, 10:04am

Sun Sep 13, 9:04am

Sun Sep 13, 8:04am

Sun Sep 13, 7:04am

Sun Sep 13, 6:04am

Sun Sep 13, 5:04am

Sun Sep 13, 4:04am

Sun Sep 13, 3:04am

Sun Sep 13, 2:04am

Sun Sep 13, 1:04am

Sun Sep 13, 12:04am

Sat Sep 12, 11:04pm

Sat Sep 12, 10:04pm

Sat Sep 12, 9:04pm

Sat Sep 12, 8:04pm

Sat Sep 12, 7:05pm

Sat Sep 12, 6:04pm

Sat Sep 12, 5:04pm

Sat Sep 12, 4:05pm

Sat Sep 12, 3:04pm

Sat Sep 12, 2:04pm

Sat Sep 12, 1:05pm

Sat Sep 12, 12:04pm

Sat Sep 12, 11:04am

Sat Sep 12, 10:04am

Sat Sep 12, 9:04am

Sat Sep 12, 8:04am

Meta data:

ID: 054b5cc8-a3ce-418f-bb2d-1b10b63748f7
Link: https://api.weather.gov/products/054b5cc8-a3ce-418f-bb2d-1b10b63748f7